Wind_Speed
42 40 40 40 39 40 40 38 37 38 39 40 42 42 42 44 48 53 57 65 72 78 86 93 99 104 108 104 98 88 81 77 53 78 78 68 60 75
34 33 34 37 39 39 38 37 36 38 40 40 40 42 42 42 44 47 51 57 65 71 78 86 96 104 113 110 104 97 97 89 66 74 82 76 70 66
29 27 29 35 38 38 36 36 36 38 41 43 42 43 44 44 44 46 46 51 58 66 73 82 92 103 115 115 112 106 104 98 76 78 83 82 88 66
25 23 25 30 35 37 37 37 37 39 42 43 43 44 47 46 47 47 47 49 53 61 70 78 88 101 118 122 119 115 109 99 84 85 80 84 85 78
21 20 23 28 33 36 37 37 38 39 42 46 46 45 46 50 51 52 51 50 50 56 65 74 84 98 116 126 126 125 120 110 94 91 83 88 91 87
19 19 23 29 33 36 39 42 44 45 46 49 50 52 51 51 54 56 56 54 53 55 61 70 80 93 110 126 132 127 125 126 114 104 89 98 98 96
20 20 22 26 32 39 44 47 50 52 53 54 56 56 57 57 56 60 62 60 58 56 59 66 76 88 104 124 135 133 129 124 123 112 98 106 103 105
26 27 27 29 32 36 40 44 47 50 53 55 57 59 61 65 63 64 66 66 65 62 62 63 72 84 100 117 136 137 133 127 125 120 109 106 107 105
29 31 32 33 35 37 39 42 44 47 50 52 54 56 58 60 64 67 70 71 71 69 66 66 69 78 94 112 132 142 138 132 131 128 115 115 115 110
32 33 35 38 40 43 48 51 54 56 57 59 59 60 60 62 63 66 71 73 75 74 73 70 72 75 85 102 122 144 143 137 139 135 125 123 122 116
33 37 40 41 46 50 54 57 60 62 64 66 67 66 66 65 65 67 69 74 75 78 76 76 76 76 81 91 112 133 147 143 142 139 132 128 126 121
37 40 43 47 50 53 56 60 63 65 67 68 69 69 68 65 64 66 69 71 74 75 80 81 80 80 81 86 99 120 145 145 147 140 139 140 132 129
40 43 46 49 53 57 61 64 66 68 67 66 66 64 63 63 63 65 68 72 74 77 77 81 85 85 85 86 92 106 125 154 151 149 145 143 142 135
43 46 49 53 58 62 66 69 68 66 64 62 59 57 58 58 59 60 63 68 73 76 78 80 84 88 89 89 91 99 112 132 158 156 153 148 150 142
46 49 53 58 63 67 69 70 66 62 58 54 51 51 52 53 55 55 58 62 68 73 77 80 82 88 92 94 95 96 105 117 136 161 158 158 154 150
49 53 58 63 67 70 71 69 63 57 53 49 47 47 47 48 50 51 55 59 64 68 72 77 81 84 89 94 99 101 102 109 119 139 162 158 160 158
54 59 64 69 72 72 72 67 59 53 50 46 42 43 43 43 46 48 51 55 59 64 68 72 77 82 84 92 97 102 103 105 111 121 135 152 162 160
59 63 68 72 74 74 71 63 56 51 47 44 41 41 41 41 43 46 48 52 56 60 65 68 71 77 81 86 94 98 104 106 107 112 119 126 146 157
63 68 72 75 75 74 68 59 53 49 45 43 40 39 39 40 41 43 46 48 53 58 62 65 68 73 80 86 90 96 100 106 108 108 111 117 123 137
68 72 76 77 76 71 64 57 51 47 44 41 39 39 38 39 40 41 44 47 50 55 59 63 67 72 77 81 85 91 98 103 107 111 110 111 114 121
71 76 78 78 74 68 60 54 49 45 42 40 38 39 39 39 39 41 43 46 48 52 57 61 65 70 74 78 82 86 92 98 103 108 112 113 112 113
75 78 78 75 69 63 57 52 47 43 40 39 39 38 38 39 40 41 42 44 47 50 54 59 63 68 73 77 80 83 88 93 98 102 108 113 114 114
79 79 77 72 65 59 54 50 46 43 41 40 39 39 39 39 40 42 43 44 47 50 54 58 62 65 70 76 80 83 87 91 94 99 103 108 110 111
Wind_Direction
283 275 265 260 253 246 246 251 255 251 243 243 244 242 234 232 233 230 229 227 227 225 225 222 214 209 205 202 197 196 199 200 211 218 228 224 230 240
283 272 260 251 246 244 244 247 252 252 251 246 242 241 242 237 232 232 230 228 227 224 222 220 214 209 205 200 196 196 194 206 203 207 210 217 216 228
284 269 257 246 242 243 244 246 253 253 250 247 245 242 239 241 239 232 231 231 228 225 222 219 216 211 205 201 196 197 199 203 206 204 208 209 216 219
283 269 255 245 240 242 246 249 253 256 256 253 247 243 244 239 241 239 233 232 231 227 223 220 215 210 206 202 198 198 199 200 204 202 206 210 215 214
289 269 256 246 243 246 250 254 255 259 258 257 252 248 244 246 242 239 239 234 233 231 226 221 216 212 208 204 200 201 201 204 205 205 207 210 212 214
288 278 262 252 251 252 252 253 254 256 257 257 254 251 249 246 243 241 238 236 232 232 230 223 218 215 209 207 204 203 203 204 206 208 209 211 213 213
278 273 269 263 259 258 258 259 259 258 256 256 256 256 253 249 247 241 238 235 234 230 229 228 221 216 211 208 205 204 204 203 208 206 209 212 216 218
272 272 272 270 267 265 264 264 265 265 265 263 260 257 255 253 249 240 239 236 234 231 228 228 225 218 214 211 206 206 207 204 207 206 208 211 215 215
272 275 274 273 274 275 276 275 273 271 270 267 264 262 257 253 250 244 236 238 237 234 229 227 226 223 218 213 209 207 208 206 207 207 209 212 213 214
271 274 277 280 283 284 281 280 279 278 276 274 271 267 262 258 254 248 240 234 235 234 231 231 225 225 221 218 213 208 209 208 208 208 210 212 214 214
273 277 279 283 283 283 283 281 280 279 278 276 274 271 267 259 254 251 246 242 234 233 232 231 228 224 223 220 217 214 210 210 211 212 212 214 216 217
279 283 286 285 286 286 287 286 285 283 280 277 275 271 268 263 254 248 245 243 242 236 230 230 228 226 224 223 220 216 214 214 213 213 214 218 216 218
285 287 288 290 292 294 294 293 291 289 285 280 276 272 267 261 255 247 243 240 238 238 234 231 230 226 225 223 222 220 217 213 216 216 216 219 220 220
286 287 291 295 296 297 298 299 297 294 289 283 278 271 265 259 255 249 244 240 238 237 234 231 229 228 225 224 222 222 220 219 216 219 219 220 222 221
290 295 298 299 301 302 302 302 300 296 291 285 278 271 265 260 256 250 245 241 237 236 235 233 229 227 227 225 225 223 222 221 220 218 222 220 221 223
296 300 302 304 305 306 307 306 302 297 291 285 279 272 265 261 256 251 247 241 237 236 234 233 232 229 227 227 226 225 223 223 222 221 220 223 225 225
300 302 305 307 309 310 310 308 304 299 293 287 279 271 267 262 258 252 247 243 238 236 235 232 231 232 229 227 227 226 226 225 225 224 225 224 226 227
302 305 307 309 311 312 311 309 305 299 293 288 280 274 269 264 258 253 248 243 240 237 236 233 230 230 230 228 227 228 227 226 227 228 226 227 227 228
304 307 309 310 312 312 310 308 303 298 293 288 281 276 271 265 259 255 250 246 241 238 237 235 232 230 229 229 229 228 228 227 227 228 229 230 230 230
306 308 309 311 312 311 309 307 303 297 292 288 282 277 272 267 262 256 252 248 244 240 237 236 233 230 231 231 230 230 229 229 227 228 229 230 231 232
307 307 310 312 312 309 309 306 302 296 291 287 282 278 274 269 264 258 254 251 248 244 239 236 234 232 231 232 231 230 231 230 229 229 230 230 231 232
306 308 311 312 311 309 307 305 301 296 291 286 283 278 275 271 266 261 256 253 250 247 243 240 238 235 233 232 232 232 232 232 232 231 231 232 231 233
307 310 311 311 309 307 305 303 299 295 291 287 282 279 275 271 267 263 260 255 251 249 247 244 242 239 236 235 233 232 232 232 233 233 233 233 233 234
Height
10255 10254 10254 10258 10263 10268 10272 10275 10278 10283 10290 10292 10295 10298 10304 10309 10314 10320 10326 10333 10341 10352 10365 10382 10398 10414 10431 10453 10472 10487 10500 10512 10510 10535 10553 10564 10567 10579
10244 10243 10244 10247 10252 10257 10261 10264 10267 10271 10275 10280 10285 10288 10290 10296 10301 10307 10311 10319 10326 10335 10345 10359 10377 10394 10410 10432 10450 10464 10477 10488 10496 10504 10522 10536 10550 10556
10235 10235 10236 10239 10243 10248 10252 10256 10258 10261 10265 10269 10273 10277 10280 10283 10287 10293 10298 10304 10311 10319 10328 10339 10355 10371 10391 10411 10427 10441 10454 10466 10477 10485 10498 10513 10518 10533
10227 10227 10229 10232 10236 10239 10243 10247 10249 10251 10253 10257 10261 10265 10268 10272 10276 10279 10285 10291 10297 10304 10313 10323 10335 10350 10370 10388 10404 10419 10430 10443 10456 10467 10481 10496 10502 10512
10221 10221 10223 10225 10229 10232 10235 10238 10240 10242 10242 10244 10247 10251 10256 10260 10264 10267 10271 10276 10282 10289 10297 10306 10318 10331 10350 10366 10378 10394 10406 10419 10437 10448 10462 10472 10481 10492
10217 10217 10217 10219 10221 10223 10225 10227 10228 10230 10231 10231 10233 10235 10239 10243 10249 10254 10256 10260 10266 10273 10280 10290 10300 10312 10327 10345 10360 10370 10382 10400 10414 10428 10440 10452 10460 10471
10212 10212 10212 10212 10213 10214 10215 10215 10216 10216 10217 10218 10219 10220 10222 10225 10230 10236 10241 10245 10249 10257 10263 10271 10282 10293 10307 10320 10337 10349 10361 10377 10391 10404 10418 10431 10441 10452
10205 10205 10205 10205 10205 10204 10204 10204 10203 10203 10202 10202 10203 10204 10205 10206 10209 10214 10221 10228 10233 10239 10246 10254 10263 10273 10285 10300 10315 10329 10343 10355 10370 10384 10395 10408 10420 10431
10196 10196 10195 10194 10194 10193 10193 10192 10191 10189 10187 10186 10186 10185 10186 10187 10189 10193 10198 10205 10213 10221 10227 10234 10243 10254 10265 10278 10293 10308 10320 10335 10349 10361 10373 10386 10396 10409
10186 10186 10185 10183 10182 10181 10179 10176 10175 10173 10171 10169 10167 10166 10167 10167 10169 10172 10175 10181 10189 10198 10208 10214 10222 10232 10245 10257 10273 10288 10302 10315 10326 10338 10351 10363 10376 10387
10177 10176 10175 10173 10170 10167 10164 10161 10158 10154 10151 10147 10144 10142 10141 10143 10146 10149 10153 10159 10164 10173 10183 10194 10202 10211 10222 10234 10248 10263 10278 10293 10304 10316 10329 10340 10353 10366
10166 10164 10163 10160 10156 10152 10148 10143 10138 10133 10128 10124 10120 10117 10114 10115 10120 10124 10129 10135 10141 10151 10159 10168 10180 10191 10200 10210 10223 10238 10255 10270 10280 10295 10305 10316 10330 10338
10155 10152 10148 10145 10140 10135 10128 10122 10115 10108 10102 10097 10093 10090 10089 10089 10092 10097 10103 10109 10116 10123 10135 10145 10154 10166 10177 10188 10200 10213 10227 10245 10256 10270 10282 10292 10303 10315
10143 10139 10135 10130 10124 10117 10109 10100 10092 10083 10076 10071 10068 10066 10064 10065 10068 10073 10078 10084 10092 10099 10107 10118 10129 10140 10153 10164 10175 10188 10201 10215 10230 10243 10256 10267 10275 10294
10128 10124 10119 10113 10106 10098 10089 10079 10069 10061 10054 10049 10046 10045 10043 10044 10047 10051 10056 10061 10068 10075 10083 10093 10103 10114 10125 10138 10149 10161 10174 10186 10200 10216 10229 10239 10251 10269
10113 10108 10102 10095 10087 10078 10067 10057 10047 10040 10034 10030 10028 10025 10025 10025 10027 10030 10034 10040 10046 10053 10060 10069 10078 10089 10100 10111 10123 10134 10147 10159 10172 10185 10206 10213 10225 10240
10098 10092 10085 10076 10067 10057 10046 10036 10027 10021 10015 10012 10010 10008 10008 10009 10009 10012 10016 10020 10026 10032 10039 10047 10056 10064 10075 10086 10096 10109 10121 10133 10144 10156 10173 10184 10197 10210
10083 10076 10068 10058 10048 10038 10026 10018 10010 10003 9999 9996 9994 9993 9992 9993 9993 9995 9998 10003 10007 10013 10019 10026 10035 10043 10052 10062 10072 10082 10094 10106 10117 10129 10141 10151 10164 10178
10067 10058 10049 10039 10029 10018 10008 10001 9994 9988 9984 9980 9978 9977 9977 9977 9979 9980 9982 9985 9990 9995 10000 10006 10014 10021 10029 10038 10047 10056 10066 10077 10089 10101 10113 10122 10133 10147
10050 10040 10031 10021 10010 9999 9991 9984 9978 9973 9968 9966 9964 9963 9962 9963 9964 9965 9967 9969 9972 9976 9981 9986 9993 10000 10007 10015 10023 10032 10041 10051 10063 10073 10084 10094 10106 10117
10032 10022 10013 10002 9991 9982 9975 9969 9963 9958 9954 9951 9950 9949 9948 9948 9949 9950 9952 9953 9955 9958 9962 9967 9972 9979 9986 9993 10001 10009 10017 10026 10036 10047 10056 10068 10078 10088
10016 10006 9995 9984 9974 9966 9960 9954 9948 9943 9940 9937 9936 9935 9934 9933 9934 9935 9937 9938 9939 9942 9944 9948 9953 9959 9964 9970 9978 9987 9993 10002 10011 10021 10030 10040 10051 10059
9997 9987 9976 9966 9958 9950 9945 9939 9934 9929 9926 9923 9922 9920 9920 9919 9919 9919 9919 9921 9923 9925 9927 9930 9933 9938 9943 9949 9955 9962 9969 9977 9984 9995 10004 10012 10021 10034